Weather History for Billings, MT

Change the Weather History Date:

Wednesday, October 24, 2012

  Actual Average Record
Temperature  
Mean Temperature 33 °F 45 °F  
Max Temperature 39 °F 56 °F 79 °F (1999)
Min Temperature 27 °F 35 °F 19 °F (1976)
Degree Days  
Heating Degree Days 32 20  
Month to date heating degree days 417 374  
Since 1 July heating degree days 482 603  
Cooling Degree Days 0 0  
Month to date cooling degree days 3 0  
Year to date cooling degree days 958 633  
Moisture  
Dew Point 26 °F    
Average Humidity 78    
Maximum Humidity 92    
Minimum Humidity 64    
Precipitation  
Precipitation T in 0.03 in 0.49 in (1954)
Month to date precipitation 1.10 0.98  
Year to date precipitation 6.18 12.33  
Snow  
Snow T in 0.10 in 3.40 in (1954)
Month to date snowfall 3.7 3.0  
Since 1 July snowfall 3.7 4.1  
Since 1 September snowfall 3.7 4.1  
Snow Depth 0.00 in    
Sea Level Pressure  
Sea Level Pressure 30.09 in    
Wind  
Wind Speed 5 mph (ENE)    
Max Wind Speed 13 mph    
Max Gust Speed 15 mph    
Visibility 10 miles    
Events Snow    
T = Trace of Precipitation, MM = Missing Value Source: NWS Daily Summary

Daily Weather History Graph

Daily Weather History Graph

Search for Another Location

Airport:

Trip Planner

Search our weather history database for the weather conditions in past years. The results will help you decide how hot, cold, wet, or windy it might be!

Date:

Astronomy

Oct. 24, 2012 Rise Set
Actual Time 7:43 AM MDT 6:11 PM MDT
Civil Twilight 7:13 AM MDT 6:42 PM MDT
Nautical Twilight 6:38 AM MDT 7:17 PM MDT
Astronomical Twilight 6:03 AM MDT 7:51 PM MDT
Moon 3:42 PM MDT (10/24) 2:27 AM MDT (10/24)
Length of Visible Light 11h 29m
Length of Day
10h 28m
Waxing Gibbous, 76% of the Moon is Illuminated
Oct 24
Waxing Gibbous
Oct 29
Full
Nov 6
Last Quarter
Nov 13
New
Nov 20
First Quarter

Hourly Weather History & Observations

Time (MDT) Temp. Windchill Dew Point Humidity Pressure Visibility Wind Dir Wind Speed Gust Speed Precip Events Conditions
12:14 AM 28.4 °F 18.0 °F 26.6 °F 93% 29.93 in 10.0 mi NNE 12.7 mph - N/A   Overcast
12:21 AM 28.4 °F 17.5 °F 26.6 °F 93% 29.94 in 10.0 mi NE 13.8 mph - N/A   Overcast
12:34 AM 28.4 °F 18.0 °F 26.6 °F 93% 29.95 in 10.0 mi NE 12.7 mph - N/A   Overcast
12:44 AM 28.4 °F 18.5 °F 26.6 °F 93% 29.95 in 10.0 mi NE 11.5 mph - N/A   Overcast
12:53 AM 28.9 °F 19.2 °F 26.1 °F 89% 30.03 in 10.0 mi ENE 11.5 mph - N/A   Overcast
1:10 AM 28.4 °F 20.4 °F 26.6 °F 93% 29.97 in 10.0 mi ENE 8.1 mph - N/A   Overcast
1:53 AM 28.0 °F 20.8 °F 26.1 °F 92% 30.04 in 10.0 mi NE 6.9 mph - N/A   Overcast
1:59 AM 28.4 °F 23.3 °F 26.6 °F 93% 29.98 in 10.0 mi NE 4.6 mph - N/A   Overcast
2:43 AM 28.4 °F 23.3 °F 24.8 °F 86% 29.99 in 10.0 mi SE 4.6 mph - N/A   Overcast
2:53 AM 28.0 °F 21.7 °F 25.0 °F 88% 30.05 in 10.0 mi ESE 5.8 mph - 0.00 in Snow Light Snow
3:08 AM 28.4 °F 22.2 °F 24.8 °F 86% 29.99 in 10.0 mi East 5.8 mph - 0.00 in Snow Light Snow
3:27 AM 28.4 °F - 24.8 °F 86% 30.00 in 10.0 mi Calm Calm - 0.00 in Snow Light Snow
3:53 AM 28.9 °F - 26.1 °F 89% 30.06 in 10.0 mi Calm Calm - 0.00 in Snow Light Snow
4:53 AM 28.0 °F - 26.1 °F 92% 30.09 in 10.0 mi Calm Calm - 0.00 in   Overcast
5:27 AM 28.4 °F 23.3 °F 24.8 °F 86% 30.01 in 9.0 mi NNE 4.6 mph - N/A Snow Light Snow
5:53 AM 28.0 °F 24.2 °F 26.1 °F 92% 30.09 in 9.0 mi NNE 3.5 mph - 0.00 in Snow Light Snow
6:53 AM 28.9 °F - 26.1 °F 89% 30.11 in 10.0 mi Calm Calm - 0.00 in   Overcast
7:53 AM 28.9 °F 25.2 °F 26.1 °F 89% 30.12 in 10.0 mi East 3.5 mph - N/A   Overcast
8:53 AM 30.0 °F - 27.0 °F 88% 30.13 in 10.0 mi Calm Calm - N/A   Overcast
10:06 AM 30.2 °F 25.4 °F 26.6 °F 86% 30.05 in 10.0 mi SE 4.6 mph - N/A   Overcast
10:53 AM 30.9 °F - 27.0 °F 85% 30.14 in 10.0 mi Calm Calm - N/A   Overcast
11:53 AM 33.1 °F 28.7 °F 28.0 °F 82% 30.13 in 10.0 mi ENE 4.6 mph - N/A   Overcast
12:19 PM 33.8 °F 30.8 °F 26.6 °F 75% 30.05 in 10.0 mi ESE 3.5 mph - N/A   Overcast
12:53 PM 35.1 °F - 27.0 °F 72% 30.13 in 10.0 mi Calm Calm - N/A   Mostly Cloudy
1:27 PM 35.6 °F 29.9 °F 28.4 °F 75% 30.03 in 10.0 mi ENE 6.9 mph - N/A   Scattered Clouds
1:53 PM 37.0 °F 32.4 °F 28.0 °F 70% 30.11 in 10.0 mi East 5.8 mph - N/A   Scattered Clouds
2:53 PM 37.9 °F 32.7 °F 27.0 °F 65% 30.11 in 10.0 mi NE 6.9 mph - N/A   Scattered Clouds
3:53 PM 37.9 °F 32.7 °F 28.0 °F 68% 30.11 in 10.0 mi East 6.9 mph - N/A   Scattered Clouds
4:53 PM 37.9 °F 31.5 °F 28.0 °F 68% 30.14 in 10.0 mi NE 9.2 mph - N/A   Scattered Clouds
5:53 PM 35.1 °F 27.9 °F 27.0 °F 72% 30.16 in 10.0 mi ENE 9.2 mph - N/A   Partly Cloudy
6:53 PM 33.8 °F 29.6 °F 26.6 °F 75% 30.09 in 10.0 mi ENE 4.6 mph - N/A   Partly Cloudy
7:53 PM 32.0 °F 26.4 °F 27.0 °F 82% 30.21 in 10.0 mi NNE 5.8 mph - N/A   Clear
8:53 PM 30.0 °F 21.1 °F 26.1 °F 85% 30.24 in 10.0 mi NNE 10.4 mph - N/A   Mostly Cloudy
9:53 PM 28.0 °F 19.3 °F 26.1 °F 92% 30.25 in 10.0 mi NNE 9.2 mph - N/A   Partly Cloudy
10:53 PM 28.0 °F 19.3 °F 25.0 °F 88% 30.26 in 10.0 mi NNE 9.2 mph - N/A   Mostly Cloudy
11:53 PM 28.0 °F 20.8 °F 25.0 °F 88% 30.27 in 10.0 mi NE 6.9 mph - N/A   Scattered Clouds